Time,TemperatureF,DewpointF,PressureIn,WindDirection,WindDirectionDegrees,WindSpeedMPH,WindSpeedGustMPH,Humidity,HourlyPrecipIn,Conditions,Clouds,dailyrainin,SoftwareType,DateUTC
2013-10-03 00:00:00,81.1,77.6,29.85,ENE,68,2.0,5.0,89,0.00,,,0.00,VWS V14.01,2013-10-03 06:00:00,
2013-10-03 00:01:00,81.1,77.6,29.85,East,89,2.0,3.0,89,0.00,,,0.00,VWS V14.01,2013-10-03 06:01:00,
2013-10-03 00:06:00,81.1,77.9,29.84,ENE,75,1.0,3.0,90,0.00,,,0.00,VWS V14.01,2013-10-03 06:06:00,
2013-10-03 00:11:00,81.1,77.6,29.84,ENE,69,3.0,3.0,89,0.00,,,0.00,VWS V14.01,2013-10-03 06:11:00,
2013-10-03 00:16:00,81.1,77.6,29.84,NE,56,3.0,3.0,89,0.00,,,0.00,VWS V14.01,2013-10-03 06:16:00,
2013-10-03 00:21:00,81.2,77.3,29.84,ENE,75,5.0,5.0,88,0.00,,,0.00,VWS V14.01,2013-10-03 06:21:00,
2013-10-03 00:26:00,81.3,77.4,29.83,ENE,69,1.0,5.0,88,0.00,,,0.00,VWS V14.01,2013-10-03 06:26:00,
2013-10-03 00:30:00,81.4,77.5,29.83,East,84,1.0,5.0,88,0.00,,,0.00,VWS V14.01,2013-10-03 06:30:00,
2013-10-03 00:31:00,81.4,77.5,29.83,ENE,75,4.0,4.0,88,0.00,,,0.00,VWS V14.01,2013-10-03 06:31:00,
2013-10-03 00:36:00,81.5,77.6,29.83,East,86,0.0,4.0,88,0.00,,,0.00,VWS V14.01,2013-10-03 06:36:00,
2013-10-03 00:41:00,81.6,77.7,29.83,East,80,0.0,5.0,88,0.00,,,0.00,VWS V14.01,2013-10-03 06:41:00,
2013-10-03 00:46:00,81.5,77.3,29.83,ENE,70,1.0,5.0,87,0.00,,,0.00,VWS V14.01,2013-10-03 06:46:00,
2013-10-03 00:51:00,81.5,77.3,29.82,ENE,68,1.0,5.0,87,0.00,,,0.00,VWS V14.01,2013-10-03 06:51:00,
2013-10-03 00:56:00,81.3,77.1,29.82,NE,49,0.0,5.0,87,0.00,,,0.00,VWS V14.01,2013-10-03 06:56:00,
2013-10-03 01:00:00,81.2,77.0,29.82,ENE,62,1.0,5.0,87,0.00,,,0.00,VWS V14.01,2013-10-03 07:00:00,
2013-10-03 01:01:00,81.2,77.0,29.82,NE,41,1.0,1.0,87,0.00,,,0.00,VWS V14.01,2013-10-03 07:01:00,
2013-10-03 01:06:00,81.1,76.9,29.81,ENE,67,0.0,2.0,87,0.00,,,0.00,VWS V14.01,2013-10-03 07:06:00,
2013-10-03 01:11:00,81.0,77.1,29.81,ENE,57,0.0,2.0,88,0.00,,,0.00,VWS V14.01,2013-10-03 07:11:00,
2013-10-03 01:16:00,81.1,77.2,29.81,ENE,57,0.0,2.0,88,0.00,,,0.00,VWS V14.01,2013-10-03 07:16:00,
2013-10-03 01:21:00,81.0,77.1,29.80,NE,55,0.0,2.0,88,0.00,,,0.00,VWS V14.01,2013-10-03 07:21:00,
2013-10-03 01:26:00,80.9,77.0,29.80,NE,53,1.0,2.0,88,0.00,,,0.00,VWS V14.01,2013-10-03 07:26:00,
2013-10-03 01:30:00,80.9,77.0,29.80,NE,52,0.0,2.0,88,0.00,,,0.00,VWS V14.01,2013-10-03 07:30:00,
2013-10-03 01:31:00,80.9,77.0,29.80,NE,53,0.0,0.0,88,0.00,,,0.00,VWS V14.01,2013-10-03 07:31:00,
2013-10-03 01:36:00,80.9,77.0,29.80,NE,56,1.0,1.0,88,0.00,,,0.00,VWS V14.01,2013-10-03 07:36:00,
2013-10-03 01:41:00,80.9,77.4,29.80,ENE,68,2.0,2.0,89,0.00,,,0.00,VWS V14.01,2013-10-03 07:41:00,
2013-10-03 01:46:00,80.8,76.9,29.80,ENE,60,1.0,2.0,88,0.00,,,0.00,VWS V14.01,2013-10-03 07:46:00,
2013-10-03 01:51:00,80.8,77.3,29.80,ENE,61,0.0,2.0,89,0.00,,,0.00,VWS V14.01,2013-10-03 07:51:00,
2013-10-03 01:56:00,80.8,77.3,29.80,ENE,72,0.0,2.0,89,0.00,,,0.00,VWS V14.01,2013-10-03 07:56:00,
2013-10-03 02:00:00,80.8,76.9,29.80,ENE,63,2.0,2.0,88,0.00,,,0.00,VWS V14.01,2013-10-03 08:00:00,
2013-10-03 02:01:00,80.8,76.9,29.80,NE,51,2.0,2.0,88,0.00,,,0.00,VWS V14.01,2013-10-03 08:01:00,
2013-10-03 02:06:00,80.9,77.0,29.79,NE,56,3.0,4.0,88,0.00,,,0.00,VWS V14.01,2013-10-03 08:06:00,
2013-10-03 02:11:00,81.0,76.8,29.79,ENE,63,1.0,4.0,87,0.00,,,0.00,VWS V14.01,2013-10-03 08:11:00,
2013-10-03 02:16:00,81.0,76.8,29.79,ENE,64,2.0,4.0,87,0.00,,,0.00,VWS V14.01,2013-10-03 08:16:00,
2013-10-03 02:21:00,81.0,77.1,29.79,East,79,0.0,4.0,88,0.00,,,0.00,VWS V14.01,2013-10-03 08:21:00,
2013-10-03 02:26:00,81.1,76.9,29.79,ENE,60,1.0,4.0,87,0.00,,,0.00,VWS V14.01,2013-10-03 08:26:00,
2013-10-03 02:30:00,81.1,76.9,29.79,NE,51,1.0,4.0,87,0.00,,,0.00,VWS V14.01,2013-10-03 08:30:00,
2013-10-03 02:31:00,81.1,76.9,29.79,ENE,60,1.0,1.0,87,0.00,,,0.00,VWS V14.01,2013-10-03 08:31:00,
2013-10-03 02:36:00,81.0,76.8,29.79,NE,49,1.0,2.0,87,0.00,,,0.00,VWS V14.01,2013-10-03 08:36:00,
2013-10-03 02:41:00,81.0,76.8,29.79,NE,39,0.0,2.0,87,0.00,,,0.00,VWS V14.01,2013-10-03 08:41:00,
2013-10-03 02:46:00,80.8,76.6,29.79,NE,45,0.0,4.0,87,0.00,,,0.00,VWS V14.01,2013-10-03 08:46:00,
2013-10-03 02:51:00,80.7,76.8,29.79,ENE,66,2.0,4.0,88,0.00,,,0.00,VWS V14.01,2013-10-03 08:51:00,
2013-10-03 02:56:00,80.8,76.9,29.79,NE,56,0.0,4.0,88,0.00,,,0.00,VWS V14.01,2013-10-03 08:56:00,
2013-10-03 03:00:00,80.9,76.7,29.79,ENE,72,1.0,4.0,87,0.00,,,0.00,VWS V14.01,2013-10-03 09:00:00,
2013-10-03 03:01:00,80.9,76.7,29.79,ENE,72,0.0,0.0,87,0.00,,,0.00,VWS V14.01,2013-10-03 09:01:00,
2013-10-03 03:06:00,81.1,76.9,29.79,ENE,59,2.0,4.0,87,0.00,,,0.00,VWS V14.01,2013-10-03 09:06:00,
2013-10-03 03:11:00,81.3,76.7,29.78,ENE,63,1.0,5.0,86,0.00,,,0.00,VWS V14.01,2013-10-03 09:11:00,
2013-10-03 03:16:00,81.6,76.7,29.79,ENE,60,7.0,7.0,85,0.00,,,0.00,VWS V14.01,2013-10-03 09:16:00,
2013-10-03 03:21:00,82.2,77.6,29.79,NE,49,5.0,7.0,86,0.00,,,0.00,VWS V14.01,2013-10-03 09:21:00,
2013-10-03 03:25:00,82.7,78.4,29.79,East,83,2.0,7.0,87,0.00,,,0.00,VWS V14.01,2013-10-03 09:25:00,
2013-10-03 03:30:00,82.6,78.3,29.80,ENE,61,4.0,4.0,87,0.00,,,0.00,VWS V14.01,2013-10-03 09:30:00,
2013-10-03 03:35:00,82.6,78.3,29.79,ESE,108,4.0,5.0,87,0.00,,,0.00,VWS V14.01,2013-10-03 09:35:00,
2013-10-03 03:40:00,82.7,78.4,29.80,ENE,60,2.0,5.0,87,0.00,,,0.00,VWS V14.01,2013-10-03 09:40:00,
2013-10-03 03:45:00,82.7,78.8,29.80,ENE,63,0.0,5.0,88,0.00,,,0.00,VWS V14.01,2013-10-03 09:45:00,
2013-10-03 03:50:00,82.5,78.2,29.80,East,96,3.0,5.0,87,0.00,,,0.00,VWS V14.01,2013-10-03 09:50:00,
2013-10-03 03:55:00,82.5,78.6,29.80,East,98,0.0,5.0,88,0.00,,,0.00,VWS V14.01,2013-10-03 09:55:00,
2013-10-03 04:00:00,82.5,78.6,29.80,East,97,2.0,5.0,88,0.00,,,0.00,VWS V14.01,2013-10-03 10:00:00,
2013-10-03 04:05:00,82.5,78.6,29.80,ESE,113,3.0,7.0,88,0.00,,,0.00,VWS V14.01,2013-10-03 10:05:00,
2013-10-03 04:10:00,82.5,78.2,29.80,NE,56,1.0,7.0,87,0.00,,,0.00,VWS V14.01,2013-10-03 10:10:00,
2013-10-03 04:15:00,82.4,78.1,29.80,East,83,2.0,7.0,87,0.00,,,0.00,VWS V14.01,2013-10-03 10:15:00,
2013-10-03 04:20:00,82.2,77.9,29.80,ENE,71,0.0,7.0,87,0.00,,,0.00,VWS V14.01,2013-10-03 10:20:00,
2013-10-03 04:25:00,82.0,77.8,29.80,ENE,65,4.0,7.0,87,0.00,,,0.00,VWS V14.01,2013-10-03 10:25:00,
2013-10-03 04:30:00,81.9,78.0,29.80,ENE,72,0.0,7.0,88,0.00,,,0.00,VWS V14.01,2013-10-03 10:30:00,
2013-10-03 04:35:00,82.0,78.1,29.80,ESE,102,2.0,5.0,88,0.00,,,0.00,VWS V14.01,2013-10-03 10:35:00,
2013-10-03 04:40:00,81.9,78.0,29.80,East,89,0.0,5.0,88,0.00,,,0.00,VWS V14.01,2013-10-03 10:40:00,
2013-10-03 04:45:00,82.1,78.2,29.81,ENE,64,2.0,5.0,88,0.00,,,0.00,VWS V14.01,2013-10-03 10:45:00,
2013-10-03 04:50:00,82.1,78.2,29.80,ESE,111,6.0,6.0,88,0.00,,,0.00,VWS V14.01,2013-10-03 10:50:00,
2013-10-03 04:55:00,82.2,77.9,29.81,East,91,4.0,6.0,87,0.00,,,0.00,VWS V14.01,2013-10-03 10:55:00,
2013-10-03 05:00:00,82.2,77.9,29.81,ESE,117,3.0,6.0,87,0.00,,,0.00,VWS V14.01,2013-10-03 11:00:00,
2013-10-03 05:05:00,82.2,77.9,29.81,ESE,108,3.0,4.0,87,0.00,,,0.00,VWS V14.01,2013-10-03 11:05:00,
2013-10-03 05:10:00,82.2,77.9,29.81,East,91,4.0,5.0,87,0.00,,,0.00,VWS V14.01,2013-10-03 11:10:00,
2013-10-03 05:15:00,82.3,78.1,29.81,East,96,2.0,5.0,87,0.00,,,0.00,VWS V14.01,2013-10-03 11:15:00,
2013-10-03 05:20:00,82.2,77.6,29.81,ESE,122,2.0,5.0,86,0.00,,,0.00,VWS V14.01,2013-10-03 11:20:00,
2013-10-03 05:25:00,82.3,78.1,29.81,East,94,2.0,5.0,87,0.00,,,0.00,VWS V14.01,2013-10-03 11:25:00,
2013-10-03 05:30:00,82.2,77.6,29.82,ESE,117,3.0,5.0,86,0.00,,,0.00,VWS V14.01,2013-10-03 11:30:00,
2013-10-03 05:35:00,82.2,77.6,29.82,ESE,115,2.0,3.0,86,0.00,,,0.00,VWS V14.01,2013-10-03 11:35:00,
2013-10-03 05:40:00,82.2,77.9,29.82,SE,127,1.0,3.0,87,0.00,,,0.00,VWS V14.01,2013-10-03 11:40:00,
2013-10-03 05:45:00,82.2,77.6,29.82,East,100,2.0,3.0,86,0.00,,,0.00,VWS V14.01,2013-10-03 11:45:00,
2013-10-03 05:50:00,82.3,77.7,29.83,East,100,3.0,4.0,86,0.00,,,0.00,VWS V14.01,2013-10-03 11:50:00,
2013-10-03 05:55:00,82.3,77.7,29.83,ESE,123,2.0,4.0,86,0.00,,,0.00,VWS V14.01,2013-10-03 11:55:00,
2013-10-03 06:00:00,82.4,77.8,29.83,SE,136,0.0,4.0,86,0.00,,,0.00,VWS V14.01,2013-10-03 12:00:00,
2013-10-03 06:05:00,82.5,77.5,29.83,SE,135,2.0,3.0,85,0.00,,,0.00,VWS V14.01,2013-10-03 12:05:00,
2013-10-03 06:10:00,82.8,77.8,29.83,ESE,121,0.0,3.0,85,0.00,,,0.00,VWS V14.01,2013-10-03 12:10:00,
2013-10-03 06:15:00,83.2,77.9,29.84,SE,143,1.0,3.0,84,0.00,,,0.00,VWS V14.01,2013-10-03 12:15:00,
2013-10-03 06:20:00,83.6,77.9,29.84,ESE,106,0.0,3.0,83,0.00,,,0.00,VWS V14.01,2013-10-03 12:20:00,
2013-10-03 06:25:00,83.7,78.0,29.85,ESE,108,3.0,4.0,83,0.00,,,0.00,VWS V14.01,2013-10-03 12:25:00,
2013-10-03 06:30:00,84.0,78.3,29.85,SE,125,1.0,4.0,83,0.00,,,0.00,VWS V14.01,2013-10-03 12:30:00,
2013-10-03 06:35:00,84.2,78.1,29.85,SE,136,1.0,2.0,82,0.00,,,0.00,VWS V14.01,2013-10-03 12:35:00,
2013-10-03 06:40:00,84.7,78.6,29.85,SE,139,2.0,2.0,82,0.00,,,0.00,VWS V14.01,2013-10-03 12:40:00,
2013-10-03 06:45:00,85.2,78.3,29.86,South,173,2.0,3.0,80,0.00,,,0.00,VWS V14.01,2013-10-03 12:45:00,
2013-10-03 06:50:00,85.6,78.7,29.86,South,190,0.0,3.0,80,0.00,,,0.00,VWS V14.01,2013-10-03 12:50:00,
2013-10-03 06:55:00,85.9,78.6,29.86,SE,130,1.0,3.0,79,0.00,,,0.00,VWS V14.01,2013-10-03 12:55:00,
2013-10-03 07:00:00,86.4,78.7,29.86,SE,142,0.0,3.0,78,0.00,,,0.00,VWS V14.01,2013-10-03 13:00:00,
2013-10-03 07:05:00,86.7,78.6,29.86,South,177,2.0,3.0,77,0.00,,,0.00,VWS V14.01,2013-10-03 13:05:00,
2013-10-03 07:10:00,86.4,77.9,29.86,SSW,203,2.0,3.0,76,0.00,,,0.00,VWS V14.01,2013-10-03 13:10:00,
2013-10-03 07:15:00,86.0,78.3,29.86,SSE,150,0.0,4.0,78,0.00,,,0.00,VWS V14.01,2013-10-03 13:15:00,
2013-10-03 07:20:00,87.0,79.3,29.87,SE,124,1.0,4.0,78,0.00,,,0.00,VWS V14.01,2013-10-03 13:20:00,
2013-10-03 07:25:00,87.7,79.2,29.87,SSE,148,0.0,4.0,76,0.00,,,0.00,VWS V14.01,2013-10-03 13:25:00,
2013-10-03 07:30:00,87.7,79.2,29.87,SSW,195,3.0,4.0,76,0.00,,,0.00,VWS V14.01,2013-10-03 13:30:00,
2013-10-03 07:35:00,87.0,78.9,29.87,South,190,3.0,4.0,77,0.00,,,0.00,VWS V14.01,2013-10-03 13:35:00,
2013-10-03 07:40:00,86.4,78.3,29.87,South,173,3.0,5.0,77,0.00,,,0.00,VWS V14.01,2013-10-03 13:40:00,
2013-10-03 07:45:00,85.8,78.2,29.87,WSW,240,1.0,5.0,78,0.00,,,0.00,VWS V14.01,2013-10-03 13:45:00,
2013-10-03 07:50:00,85.4,78.2,29.87,SW,236,0.0,5.0,79,0.00,,,0.00,VWS V14.01,2013-10-03 13:50:00,
2013-10-03 07:55:00,85.2,78.7,29.87,SW,223,4.0,5.0,81,0.00,,,0.00,VWS V14.01,2013-10-03 13:55:00,
2013-10-03 08:00:00,85.3,78.4,29.87,SW,230,2.0,5.0,80,0.00,,,0.00,VWS V14.01,2013-10-03 14:00:00,
2013-10-03 08:05:00,85.4,78.5,29.87,South,190,1.0,4.0,80,0.00,,,0.00,VWS V14.01,2013-10-03 14:05:00,
2013-10-03 08:10:00,85.4,78.5,29.87,SSW,205,2.0,4.0,80,0.00,,,0.00,VWS V14.01,2013-10-03 14:10:00,
2013-10-03 08:15:00,86.1,79.2,29.88,SSE,160,2.0,4.0,80,0.00,,,0.00,VWS V14.01,2013-10-03 14:15:00,
2013-10-03 08:20:00,87.3,78.8,29.88,South,187,3.0,4.0,76,0.00,,,0.00,VWS V14.01,2013-10-03 14:20:00,
2013-10-03 08:25:00,87.9,79.0,29.88,South,184,3.0,4.0,75,0.00,,,0.00,VWS V14.01,2013-10-03 14:25:00,
2013-10-03 08:30:00,88.1,79.6,29.88,SSE,156,3.0,4.0,76,0.00,,,0.00,VWS V14.01,2013-10-03 14:30:00,
2013-10-03 08:35:00,88.3,79.8,29.88,SSW,201,1.0,4.0,76,0.00,,,0.00,VWS V14.01,2013-10-03 14:35:00,
2013-10-03 08:40:00,88.4,78.7,29.88,South,169,1.0,4.0,73,0.00,,,0.00,VWS V14.01,2013-10-03 14:40:00,
2013-10-03 08:45:00,88.7,79.3,29.89,SE,129,1.0,4.0,74,0.00,,,0.00,VWS V14.01,2013-10-03 14:45:00,
2013-10-03 08:50:00,89.3,79.1,29.89,SSW,210,1.0,4.0,72,0.00,,,0.00,VWS V14.01,2013-10-03 14:50:00,
2013-10-03 08:55:00,88.5,78.3,29.89,SSW,209,2.0,5.0,72,0.00,,,0.00,VWS V14.01,2013-10-03 14:55:00,
2013-10-03 09:00:00,88.8,79.9,29.89,ESE,110,0.0,5.0,75,0.00,,,0.00,VWS V14.01,2013-10-03 15:00:00,
2013-10-03 09:05:00,90.0,80.2,29.89,South,174,1.0,3.0,73,0.00,,,0.00,VWS V14.01,2013-10-03 15:05:00,
2013-10-03 09:10:00,90.6,80.3,29.89,SE,126,0.0,4.0,72,0.00,,,0.00,VWS V14.01,2013-10-03 15:10:00,
2013-10-03 09:15:00,90.9,79.3,29.89,SE,138,2.0,4.0,69,0.00,,,0.00,VWS V14.01,2013-10-03 15:15:00,
2013-10-03 09:20:00,90.4,79.7,29.89,SE,141,4.0,5.0,71,0.00,,,0.00,VWS V14.01,2013-10-03 15:20:00,
2013-10-03 09:25:00,89.6,79.4,29.89,SSE,150,1.0,5.0,72,0.00,,,0.00,VWS V14.01,2013-10-03 15:25:00,
2013-10-03 09:30:00,89.5,79.7,29.90,SSE,148,2.0,5.0,73,0.00,,,0.00,VWS V14.01,2013-10-03 15:30:00,
2013-10-03 09:35:00,89.9,79.7,29.90,SE,128,2.0,4.0,72,0.00,,,0.00,VWS V14.01,2013-10-03 15:35:00,
2013-10-03 09:40:00,90.5,78.5,29.89,SSW,203,1.0,4.0,68,0.00,,,0.00,VWS V14.01,2013-10-03 15:40:00,
2013-10-03 09:45:00,90.2,78.7,29.89,SW,214,1.0,4.0,69,0.00,,,0.00,VWS V14.01,2013-10-03 15:45:00,
2013-10-03 09:50:00,88.6,78.0,29.89,SSW,203,1.0,4.0,71,0.00,,,0.00,VWS V14.01,2013-10-03 15:50:00,
2013-10-03 09:55:00,88.8,78.2,29.90,SSE,158,1.0,4.0,71,0.00,,,0.00,VWS V14.01,2013-10-03 15:55:00,
2013-10-03 10:00:00,90.3,79.2,29.89,SSW,198,3.0,4.0,70,0.00,,,0.00,VWS V14.01,2013-10-03 16:00:00,
2013-10-03 10:05:00,89.7,78.6,29.89,South,169,2.0,3.0,70,0.00,,,0.00,VWS V14.01,2013-10-03 16:05:00,
2013-10-03 10:10:00,90.2,78.7,29.89,West,271,1.0,3.0,69,0.00,,,0.00,VWS V14.01,2013-10-03 16:10:00,
2013-10-03 10:15:00,91.3,79.3,29.89,South,179,2.0,3.0,68,0.00,,,0.00,VWS V14.01,2013-10-03 16:15:00,
2013-10-03 10:20:00,91.3,79.7,29.89,ESE,113,1.0,3.0,69,0.00,,,0.00,VWS V14.01,2013-10-03 16:20:00,
2013-10-03 10:25:00,90.8,79.2,29.88,SE,133,0.0,3.0,69,0.00,,,0.00,VWS V14.01,2013-10-03 16:25:00,
2013-10-03 10:30:00,89.5,78.4,29.88,SE,128,4.0,4.0,70,0.00,,,0.00,VWS V14.01,2013-10-03 16:30:00,
2013-10-03 10:35:00,88.6,78.4,29.88,ESE,120,2.0,5.0,72,0.00,,,0.00,VWS V14.01,2013-10-03 16:35:00,
2013-10-03 10:40:00,88.6,78.8,29.88,SSE,155,0.0,5.0,73,0.00,,,0.00,VWS V14.01,2013-10-03 16:40:00,
2013-10-03 10:45:00,88.7,78.9,29.88,SSE,148,2.0,5.0,73,0.00,,,0.00,VWS V14.01,2013-10-03 16:45:00,
2013-10-03 10:50:00,89.0,78.8,29.88,SE,129,0.0,5.0,72,0.00,,,0.00,VWS V14.01,2013-10-03 16:50:00,
2013-10-03 10:55:00,89.1,78.5,29.88,SSW,193,0.0,5.0,71,0.00,,,0.00,VWS V14.01,2013-10-03 16:55:00,
2013-10-03 11:00:00,88.2,78.4,29.88,SSW,212,0.0,5.0,73,0.00,,,0.00,VWS V14.01,2013-10-03 17:00:00,
2013-10-03 11:05:00,87.8,78.1,29.88,ESE,114,1.0,1.0,73,0.00,,,0.00,VWS V14.01,2013-10-03 17:05:00,
2013-10-03 11:10:00,87.9,78.2,29.87,SW,228,0.0,1.0,73,0.00,,,0.00,VWS V14.01,2013-10-03 17:10:00,
2013-10-03 11:15:00,87.8,78.5,29.87,East,79,1.0,3.0,74,0.00,,,0.00,VWS V14.01,2013-10-03 17:15:00,
2013-10-03 11:20:00,88.2,79.3,29.87,WNW,285,0.0,4.0,75,0.00,,,0.00,VWS V14.01,2013-10-03 17:20:00,
2013-10-03 11:25:00,88.1,78.8,29.86,East,84,2.0,4.0,74,0.00,,,0.00,VWS V14.01,2013-10-03 17:25:00,
2013-10-03 11:30:00,87.9,78.6,29.86,NNE,13,4.0,5.0,74,0.00,,,0.00,VWS V14.01,2013-10-03 17:30:00,
2013-10-03 11:35:00,87.5,78.6,29.86,NNE,19,3.0,4.0,75,0.00,,,0.00,VWS V14.01,2013-10-03 17:35:00,
2013-10-03 11:40:00,87.4,78.5,29.86,ENE,70,2.0,5.0,75,0.00,,,0.00,VWS V14.01,2013-10-03 17:40:00,
2013-10-03 11:45:00,87.5,79.0,29.86,NNW,341,2.0,5.0,76,0.00,,,0.00,VWS V14.01,2013-10-03 17:45:00,
2013-10-03 11:50:00,88.1,78.4,29.85,NE,37,5.0,7.0,73,0.00,,,0.00,VWS V14.01,2013-10-03 17:50:00,
2013-10-03 11:55:00,88.3,77.7,29.85,NNW,332,0.0,7.0,71,0.00,,,0.00,VWS V14.01,2013-10-03 17:55:00,
2013-10-03 12:00:00,88.3,78.1,29.85,ENE,58,1.0,7.0,72,0.00,,,0.00,VWS V14.01,2013-10-03 18:00:00,
2013-10-03 12:05:00,88.7,78.9,29.85,NNE,18,0.0,3.0,73,0.00,,,0.00,VWS V14.01,2013-10-03 18:05:00,
2013-10-03 12:10:00,88.7,78.9,29.85,NNE,24,4.0,4.0,73,0.00,,,0.00,VWS V14.01,2013-10-03 18:10:00,
2013-10-03 12:15:00,88.2,78.0,29.84,ENE,75,2.0,6.0,72,0.00,,,0.00,VWS V14.01,2013-10-03 18:15:00,
2013-10-03 12:20:00,88.1,78.8,29.84,NNW,347,1.0,6.0,74,0.00,,,0.00,VWS V14.01,2013-10-03 18:20:00,
2013-10-03 12:25:00,87.9,78.6,29.84,ENE,63,0.0,6.0,74,0.00,,,0.00,VWS V14.01,2013-10-03 18:25:00,
2013-10-03 12:30:00,87.9,78.2,29.83,NNE,20,2.0,6.0,73,0.00,,,0.00,VWS V14.01,2013-10-03 18:30:00,
2013-10-03 12:35:00,87.9,77.8,29.83,NNW,345,3.0,10.0,72,0.00,,,0.00,VWS V14.01,2013-10-03 18:35:00,
2013-10-03 12:40:00,87.8,77.7,29.83,North,352,3.0,10.0,72,0.00,,,0.00,VWS V14.01,2013-10-03 18:40:00,
2013-10-03 12:45:00,88.3,78.1,29.83,NE,54,2.0,10.0,72,0.00,,,0.00,VWS V14.01,2013-10-03 18:45:00,
2013-10-03 12:50:00,88.8,77.8,29.82,NE,52,3.0,10.0,70,0.00,,,0.00,VWS V14.01,2013-10-03 18:50:00,
2013-10-03 12:55:00,88.4,77.8,29.82,NNW,330,5.0,10.0,71,0.00,,,0.00,VWS V14.01,2013-10-03 18:55:00,
2013-10-03 13:00:00,89.1,78.0,29.82,NE,50,3.0,10.0,70,0.00,,,0.00,VWS V14.01,2013-10-03 19:00:00,
2013-10-03 13:05:00,88.6,78.0,29.82,ENE,60,1.0,6.0,71,0.00,,,0.00,VWS V14.01,2013-10-03 19:05:00,
2013-10-03 13:10:00,89.0,78.8,29.81,NE,46,0.0,6.0,72,0.00,,,0.00,VWS V14.01,2013-10-03 19:10:00,
2013-10-03 13:15:00,88.9,77.8,29.81,NE,52,4.0,7.0,70,0.00,,,0.00,VWS V14.01,2013-10-03 19:15:00,
2013-10-03 13:20:00,88.8,78.6,29.81,NNE,33,4.0,7.0,72,0.00,,,0.00,VWS V14.01,2013-10-03 19:20:00,
2013-10-03 13:25:00,88.8,78.2,29.81,ENE,68,4.0,7.0,71,0.00,,,0.00,VWS V14.01,2013-10-03 19:25:00,
2013-10-03 13:30:00,88.0,78.3,29.81,ENE,64,4.0,7.0,73,0.00,,,0.00,VWS V14.01,2013-10-03 19:30:00,
2013-10-03 13:35:00,87.8,78.1,29.80,NE,41,3.0,5.0,73,0.00,,,0.00,VWS V14.01,2013-10-03 19:35:00,
2013-10-03 13:40:00,87.6,77.9,29.80,NE,47,6.0,9.0,73,0.00,,,0.00,VWS V14.01,2013-10-03 19:40:00,
2013-10-03 13:45:00,87.5,77.4,29.80,NNW,333,3.0,9.0,72,0.00,,,0.00,VWS V14.01,2013-10-03 19:45:00,
2013-10-03 13:50:00,88.0,78.3,29.80,NW,325,1.0,9.0,73,0.00,,,0.00,VWS V14.01,2013-10-03 19:50:00,
2013-10-03 13:55:00,88.2,78.0,29.80,ENE,58,4.0,9.0,72,0.00,,,0.00,VWS V14.01,2013-10-03 19:55:00,
2013-10-03 14:00:00,87.5,77.8,29.80,North,356,2.0,9.0,73,0.00,,,0.00,VWS V14.01,2013-10-03 20:00:00,
2013-10-03 14:05:00,88.0,78.3,29.80,North,3,0.0,5.0,73,0.00,,,0.00,VWS V14.01,2013-10-03 20:05:00,
2013-10-03 14:10:00,88.0,77.8,29.80,NNE,17,4.0,7.0,72,0.00,,,0.00,VWS V14.01,2013-10-03 20:10:00,
2013-10-03 14:15:00,87.2,77.9,29.79,NE,44,5.0,9.0,74,0.00,,,0.00,VWS V14.01,2013-10-03 20:15:00,
2013-10-03 14:20:00,86.7,77.8,29.79,East,82,0.0,9.0,75,0.00,,,0.00,VWS V14.01,2013-10-03 20:20:00,
2013-10-03 14:25:00,86.4,77.1,29.79,ENE,58,3.0,9.0,74,0.00,,,0.00,VWS V14.01,2013-10-03 20:25:00,
2013-10-03 14:30:00,86.2,76.9,29.79,East,79,3.0,9.0,74,0.00,,,0.00,VWS V14.01,2013-10-03 20:30:00,
2013-10-03 14:35:00,86.6,77.7,29.79,NE,51,5.0,5.0,75,0.00,,,0.00,VWS V14.01,2013-10-03 20:35:00,
2013-10-03 14:40:00,86.5,77.6,29.79,East,82,3.0,7.0,75,0.00,,,0.00,VWS V14.01,2013-10-03 20:40:00,
2013-10-03 14:45:00,86.6,77.7,29.79,NE,41,2.0,7.0,75,0.00,,,0.00,VWS V14.01,2013-10-03 20:45:00,
2013-10-03 14:50:00,87.0,78.1,29.79,ENE,68,1.0,7.0,75,0.00,,,0.00,VWS V14.01,2013-10-03 20:50:00,
2013-10-03 14:55:00,87.2,78.3,29.78,NNW,334,1.0,7.0,75,0.00,,,0.00,VWS V14.01,2013-10-03 20:55:00,
2013-10-03 15:00:00,87.3,78.4,29.78,ENE,58,1.0,7.0,75,0.00,,,0.00,VWS V14.01,2013-10-03 21:00:00,
2013-10-03 15:05:00,86.5,78.0,29.79,ENE,58,1.0,5.0,76,0.00,,,0.00,VWS V14.01,2013-10-03 21:05:00,
2013-10-03 15:10:00,86.5,78.0,29.79,NE,56,2.0,5.0,76,0.00,,,0.00,VWS V14.01,2013-10-03 21:10:00,
2013-10-03 15:15:00,86.3,77.8,29.78,NE,54,1.0,5.0,76,0.00,,,0.00,VWS V14.01,2013-10-03 21:15:00,
2013-10-03 15:20:00,86.3,77.4,29.78,ENE,68,5.0,6.0,75,0.00,,,0.00,VWS V14.01,2013-10-03 21:20:00,
2013-10-03 15:25:00,86.0,77.6,29.78,ENE,75,2.0,6.0,76,0.00,,,0.00,VWS V14.01,2013-10-03 21:25:00,
2013-10-03 15:30:00,86.1,77.7,29.78,NE,53,3.0,6.0,76,0.00,,,0.00,VWS V14.01,2013-10-03 21:30:00,
2013-10-03 15:35:00,86.1,78.1,29.78,ENE,75,2.0,8.0,77,0.00,,,0.00,VWS V14.01,2013-10-03 21:35:00,
2013-10-03 15:40:00,86.1,78.1,29.78,ENE,77,2.0,8.0,77,0.00,,,0.00,VWS V14.01,2013-10-03 21:40:00,
2013-10-03 15:45:00,86.1,78.1,29.78,NE,41,4.0,8.0,77,0.00,,,0.00,VWS V14.01,2013-10-03 21:45:00,
2013-10-03 15:50:00,85.9,77.9,29.78,ENE,70,1.0,8.0,77,0.00,,,0.00,VWS V14.01,2013-10-03 21:50:00,
2013-10-03 15:55:00,85.8,77.8,29.78,ESE,104,1.0,8.0,77,0.00,,,0.00,VWS V14.01,2013-10-03 21:55:00,
2013-10-03 16:00:00,85.9,77.9,29.78,North,356,2.0,8.0,77,0.00,,,0.00,VWS V14.01,2013-10-03 22:00:00,
2013-10-03 16:05:00,85.8,78.2,29.78,ENE,63,1.0,6.0,78,0.00,,,0.00,VWS V14.01,2013-10-03 22:05:00,
2013-10-03 16:11:00,85.6,78.0,29.78,ENE,76,4.0,6.0,78,0.00,,,0.00,VWS V14.01,2013-10-03 22:11:00,
2013-10-03 16:16:00,85.6,78.3,29.78,ENE,75,5.0,6.0,79,0.00,,,0.00,VWS V14.01,2013-10-03 22:16:00,
2013-10-03 16:21:00,85.4,78.2,29.77,ENE,70,4.0,6.0,79,0.00,,,0.00,VWS V14.01,2013-10-03 22:21:00,
2013-10-03 16:26:00,85.4,78.2,29.78,ENE,66,4.0,6.0,79,0.00,,,0.00,VWS V14.01,2013-10-03 22:26:00,
2013-10-03 16:30:00,85.4,78.2,29.78,NE,54,2.0,6.0,79,0.00,,,0.00,VWS V14.01,2013-10-03 22:30:00,
2013-10-03 16:31:00,85.4,78.2,29.78,ENE,59,0.0,2.0,79,0.00,,,0.00,VWS V14.01,2013-10-03 22:31:00,
2013-10-03 16:36:00,85.4,78.2,29.78,ENE,70,1.0,5.0,79,0.00,,,0.00,VWS V14.01,2013-10-03 22:36:00,
2013-10-03 16:41:00,85.5,78.2,29.78,ENE,65,4.0,5.0,79,0.00,,,0.00,VWS V14.01,2013-10-03 22:41:00,
2013-10-03 16:46:00,85.4,78.2,29.78,ENE,60,2.0,7.0,79,0.00,,,0.00,VWS V14.01,2013-10-03 22:46:00,
2013-10-03 16:51:00,85.4,78.2,29.78,East,82,4.0,7.0,79,0.00,,,0.00,VWS V14.01,2013-10-03 22:51:00,
2013-10-03 16:56:00,85.5,78.2,29.78,East,79,4.0,7.0,79,0.00,,,0.00,VWS V14.01,2013-10-03 22:56:00,
2013-10-03 17:00:00,85.5,78.2,29.78,ENE,74,3.0,7.0,79,0.00,,,0.00,VWS V14.01,2013-10-03 23:00:00,
2013-10-03 17:01:00,85.5,78.6,29.78,ESE,105,2.0,4.0,80,0.00,,,0.00,VWS V14.01,2013-10-03 23:01:00,
2013-10-03 17:06:00,85.5,78.6,29.78,NE,52,1.0,5.0,80,0.00,,,0.00,VWS V14.01,2013-10-03 23:06:00,
2013-10-03 17:11:00,85.4,78.5,29.79,East,93,1.0,6.0,80,0.00,,,0.00,VWS V14.01,2013-10-03 23:11:00,
2013-10-03 17:16:00,85.4,78.5,29.79,East,96,1.0,6.0,80,0.00,,,0.00,VWS V14.01,2013-10-03 23:16:00,
2013-10-03 17:21:00,85.3,78.4,29.79,NNE,24,1.0,6.0,80,0.00,,,0.00,VWS V14.01,2013-10-03 23:21:00,
2013-10-03 17:26:00,85.2,78.3,29.79,East,79,5.0,6.0,80,0.00,,,0.00,VWS V14.01,2013-10-03 23:26:00,
2013-10-03 17:30:00,85.2,78.7,29.79,ENE,74,2.0,6.0,81,0.00,,,0.00,VWS V14.01,2013-10-03 23:30:00,
2013-10-03 17:31:00,85.1,78.6,29.79,ESE,113,1.0,2.0,81,0.00,,,0.00,VWS V14.01,2013-10-03 23:31:00,
2013-10-03 17:36:00,85.1,79.0,29.79,ESE,117,0.0,4.0,82,0.00,,,0.00,VWS V14.01,2013-10-03 23:36:00,
2013-10-03 17:41:00,85.0,78.5,29.79,East,83,1.0,4.0,81,0.00,,,0.00,VWS V14.01,2013-10-03 23:41:00,
2013-10-03 17:46:00,84.9,78.4,29.79,ENE,72,1.0,4.0,81,0.00,,,0.00,VWS V14.01,2013-10-03 23:46:00,
2013-10-03 17:51:00,84.9,78.4,29.79,ENE,75,1.0,4.0,81,0.00,,,0.00,VWS V14.01,2013-10-03 23:51:00,
2013-10-03 17:56:00,84.9,78.4,29.80,ENE,60,1.0,4.0,81,0.00,,,0.00,VWS V14.01,2013-10-03 23:56:00,
2013-10-03 18:00:00,84.8,78.7,29.80,East,82,0.0,4.0,82,0.00,,,0.00,VWS V14.01,2013-10-04 00:00:00,
2013-10-03 18:01:00,84.8,78.7,29.80,NE,38,2.0,4.0,82,0.00,,,0.00,VWS V14.01,2013-10-04 00:01:00,
2013-10-03 18:06:00,84.8,78.7,29.80,ENE,76,1.0,5.0,82,0.00,,,0.00,VWS V14.01,2013-10-04 00:06:00,
2013-10-03 18:11:00,85.0,78.9,29.80,ENE,72,2.0,8.0,82,0.00,,,0.00,VWS V14.01,2013-10-04 00:11:00,
2013-10-03 18:16:00,85.2,78.7,29.81,East,80,7.0,9.0,81,0.00,,,0.00,VWS V14.01,2013-10-04 00:16:00,
2013-10-03 18:21:00,85.3,78.8,29.81,ENE,75,2.0,9.0,81,0.00,,,0.00,VWS V14.01,2013-10-04 00:21:00,
2013-10-03 18:26:00,85.4,78.5,29.81,ENE,67,3.0,10.0,80,0.00,,,0.00,VWS V14.01,2013-10-04 00:26:00,
2013-10-03 18:30:00,85.4,78.9,29.81,East,84,7.0,10.0,81,0.00,,,0.00,VWS V14.01,2013-10-04 00:30:00,
2013-10-03 18:31:00,85.4,78.9,29.81,ENE,65,4.0,8.0,81,0.00,,,0.00,VWS V14.01,2013-10-04 00:31:00,
2013-10-03 18:36:00,85.4,79.3,29.82,NE,56,5.0,10.0,82,0.00,,,0.00,VWS V14.01,2013-10-04 00:36:00,
2013-10-03 18:41:00,85.3,79.6,29.82,ENE,67,4.0,10.0,83,0.00,,,0.00,VWS V14.01,2013-10-04 00:41:00,
2013-10-03 18:46:00,85.2,79.1,29.82,East,101,3.0,14.0,82,0.00,,,0.00,VWS V14.01,2013-10-04 00:46:00,
2013-10-03 18:51:00,85.2,79.1,29.83,East,82,6.0,14.0,82,0.00,,,0.00,VWS V14.01,2013-10-04 00:51:00,
2013-10-03 18:56:00,85.2,79.5,29.83,NE,54,4.0,14.0,83,0.00,,,0.00,VWS V14.01,2013-10-04 00:56:00,
2013-10-03 19:00:00,85.1,79.4,29.83,ENE,76,6.0,14.0,83,0.00,,,0.00,VWS V14.01,2013-10-04 01:00:00,
2013-10-03 19:01:00,85.1,79.4,29.84,NE,46,7.0,9.0,83,0.00,,,0.00,VWS V14.01,2013-10-04 01:01:00,
2013-10-03 19:06:00,85.1,79.4,29.84,ENE,73,8.0,9.0,83,0.00,,,0.00,VWS V14.01,2013-10-04 01:06:00,
2013-10-03 19:11:00,85.1,79.4,29.84,ENE,74,10.0,12.0,83,0.00,,,0.00,VWS V14.01,2013-10-04 01:11:00,
2013-10-03 19:16:00,85.2,79.5,29.84,ENE,69,11.0,13.0,83,0.00,,,0.00,VWS V14.01,2013-10-04 01:16:00,
2013-10-03 19:21:00,85.2,79.5,29.84,NE,43,7.0,13.0,83,0.00,,,0.00,VWS V14.01,2013-10-04 01:21:00,
2013-10-03 19:26:00,85.2,79.5,29.85,NE,56,7.0,13.0,83,0.00,,,0.00,VWS V14.01,2013-10-04 01:26:00,
2013-10-03 19:30:00,85.2,79.8,29.84,NE,54,7.0,13.0,84,0.00,,,0.00,VWS V14.01,2013-10-04 01:30:00,
2013-10-03 19:31:00,85.2,79.8,29.84,NE,54,7.0,9.0,84,0.00,,,0.00,VWS V14.01,2013-10-04 01:31:00,
2013-10-03 19:36:00,85.2,79.8,29.85,East,79,8.0,12.0,84,0.00,,,0.00,VWS V14.01,2013-10-04 01:36:00,
2013-10-03 19:41:00,85.1,79.7,29.85,NE,56,9.0,12.0,84,0.00,,,0.00,VWS V14.01,2013-10-04 01:41:00,
2013-10-03 19:46:00,85.1,79.7,29.85,ENE,72,9.0,12.0,84,0.00,,,0.00,VWS V14.01,2013-10-04 01:46:00,
2013-10-03 19:51:00,85.1,79.7,29.85,East,97,7.0,13.0,84,0.00,,,0.00,VWS V14.01,2013-10-04 01:51:00,
2013-10-03 19:56:00,85.0,79.6,29.85,East,84,5.0,13.0,84,0.00,,,0.00,VWS V14.01,2013-10-04 01:56:00,
2013-10-03 20:00:00,85.0,79.6,29.86,East,83,8.0,13.0,84,0.00,,,0.00,VWS V14.01,2013-10-04 02:00:00,
2013-10-03 20:01:00,85.0,79.6,29.86,ENE,67,6.0,8.0,84,0.00,,,0.00,VWS V14.01,2013-10-04 02:01:00,
2013-10-03 20:06:00,85.0,79.6,29.86,NE,53,10.0,11.0,84,0.00,,,0.00,VWS V14.01,2013-10-04 02:06:00,
2013-10-03 20:11:00,85.1,79.4,29.86,NNE,30,3.0,12.0,83,0.00,,,0.00,VWS V14.01,2013-10-04 02:11:00,
2013-10-03 20:16:00,85.2,79.5,29.87,ENE,70,8.0,12.0,83,0.00,,,0.00,VWS V14.01,2013-10-04 02:16:00,
2013-10-03 20:21:00,85.2,79.5,29.87,ENE,62,6.0,12.0,83,0.00,,,0.00,VWS V14.01,2013-10-04 02:21:00,
2013-10-03 20:26:00,85.2,79.5,29.87,ENE,70,7.0,14.0,83,0.00,,,0.00,VWS V14.01,2013-10-04 02:26:00,
2013-10-03 20:30:00,85.2,79.1,29.88,NE,50,7.0,14.0,82,0.00,,,0.00,VWS V14.01,2013-10-04 02:30:00,
2013-10-03 20:31:00,85.2,79.1,29.88,NE,56,6.0,11.0,82,0.00,,,0.00,VWS V14.01,2013-10-04 02:31:00,
2013-10-03 20:36:00,85.2,79.5,29.88,ENE,60,2.0,11.0,83,0.00,,,0.00,VWS V14.01,2013-10-04 02:36:00,
2013-10-03 20:41:00,85.2,79.1,29.88,ENE,58,6.0,12.0,82,0.00,,,0.00,VWS V14.01,2013-10-04 02:41:00,
2013-10-03 20:46:00,85.2,79.1,29.88,ENE,59,7.0,13.0,82,0.00,,,0.00,VWS V14.01,2013-10-04 02:46:00,
2013-10-03 20:51:00,85.3,79.6,29.88,NE,42,5.0,15.0,83,0.00,,,0.00,VWS V14.01,2013-10-04 02:51:00,
2013-10-03 20:56:00,85.2,78.7,29.88,NE,45,5.0,15.0,81,0.00,,,0.00,VWS V14.01,2013-10-04 02:56:00,
2013-10-03 21:00:00,85.3,79.2,29.88,NE,49,4.0,15.0,82,0.00,,,0.00,VWS V14.01,2013-10-04 03:00:00,
2013-10-03 21:01:00,85.3,79.2,29.88,NE,41,5.0,9.0,82,0.00,,,0.00,VWS V14.01,2013-10-04 03:01:00,
2013-10-03 21:06:00,85.3,79.2,29.88,East,90,8.0,15.0,82,0.00,,,0.00,VWS V14.01,2013-10-04 03:06:00,
2013-10-03 21:11:00,85.3,79.2,29.88,NE,38,6.0,15.0,82,0.00,,,0.00,VWS V14.01,2013-10-04 03:11:00,
2013-10-03 21:16:00,85.3,79.2,29.88,NNE,28,4.0,15.0,82,0.00,,,0.00,VWS V14.01,2013-10-04 03:16:00,
2013-10-03 21:21:00,85.3,79.2,29.88,ENE,69,4.0,15.0,82,0.00,,,0.00,VWS V14.01,2013-10-04 03:21:00,
2013-10-03 21:26:00,85.2,79.5,29.88,ENE,66,3.0,15.0,83,0.00,,,0.00,VWS V14.01,2013-10-04 03:26:00,
2013-10-03 21:30:00,85.2,79.1,29.88,NE,52,11.0,15.0,82,0.00,,,0.00,VWS V14.01,2013-10-04 03:30:00,
2013-10-03 21:31:00,85.2,79.1,29.88,ENE,68,6.0,13.0,82,0.00,,,0.00,VWS V14.01,2013-10-04 03:31:00,
2013-10-03 21:36:00,85.2,79.1,29.88,NE,49,4.0,15.0,82,0.00,,,0.00,VWS V14.01,2013-10-04 03:36:00,
2013-10-03 21:41:00,85.2,79.1,29.88,NNE,30,8.0,15.0,82,0.00,,,0.00,VWS V14.01,2013-10-04 03:41:00,
2013-10-03 21:46:00,85.3,79.6,29.88,East,96,2.0,15.0,83,0.00,,,0.00,VWS V14.01,2013-10-04 03:46:00,
2013-10-03 21:51:00,85.2,79.5,29.88,NE,56,5.0,15.0,83,0.00,,,0.00,VWS V14.01,2013-10-04 03:51:00,
2013-10-03 21:56:00,85.1,79.4,29.88,ENE,61,11.0,16.0,83,0.00,,,0.00,VWS V14.01,2013-10-04 03:56:00,
2013-10-03 22:00:00,85.2,79.8,29.88,NE,41,6.0,16.0,84,0.00,,,0.00,VWS V14.01,2013-10-04 04:00:00,
2013-10-03 22:30:00,85.2,79.5,29.88,ENE,67,9.0,17.0,83,0.00,,,0.00,VWS V14.01,2013-10-04 04:30:00,
2013-10-03 23:00:00,85.0,78.9,29.88,ENE,68,10.0,20.0,82,0.00,,,0.00,VWS V14.01,2013-10-04 05:00:00,
2013-10-03 23:30:00,84.8,79.1,29.87,ENE,68,9.0,20.0,83,0.00,,,0.00,VWS V14.01,2013-10-04 05:30:00,